STARLINK-32856, 62819

Orbit data source: Space-Track

STARLINK-32856, 62819 is a payload satellite owned by SpaceX/Seattle (US) in LEO that was launched on Fri, 24 Jan 2025 UTC via an FALCON 9 launch vehicle from the Air Force Western Test Range (AFWTR). Payload-class satellites include a variety of spacecraft equipped with specific instruments for various scientific and technological missions. These include communications satellites like Starlink; space stations such as the ISS; scientific satellites like the Hubble; Earth observation satellites from companies like Planet Labs, Umbra, and HawkEye 360; GPS; miniature CubeSats for education and research; and military/defense satellites.

Loading next visibility...
Identifier
62819, 2025-018P
Orbit
LEO
Country
Flag of USUS
Related business
Manufacturer
SpaceX/Seattle
Mission
Operational Commercial Communications
Bus & Motor
STARLINK V2M, Unknown motor
Mass
730 kg wet, ~700 kg dry
Launch date (UTC)
2025-01-24 (1 year ago)
Launch vehicle
FALCON 9
Launch site
Air Force Western Test Range (AFWTR)
Object type
Payload
Rocket body
Debris
Shape & HBR
Box + 2 Pan, 17.7 m
Radar Cross Section
33.884 m², Large (>1 m²)

Expand to show TLE details & history
Last TLE update: 17 hours ago

TLE from 17 hours ago
0 STARLINK-32856
1 62819U 25018P   26129.98779429  .00010126  00000-0  35350-3 0  9996
2 62819  53.1593  24.8599 0001307  82.4433 277.6717 15.30202670 72569
Epoch: 2026-05-09T23:42Z
TLE epoch observation values (Epoch: 2026-05-09T23:42:25.426Z)
Latitude
0.00004°
Longitude
161.45665°
Altitude
475.987 km
Speed
7.629 km/s
True Right ascension
01h 39m 26s
True Declination
0° 00' 00"
Sunlit
Object was in daylight at epoch
Visualization orbit readout
Latitude
Unknown
Longitude
Unknown
Altitude
Unknown
Speed
Unknown
Apparent Right ascension
Unknown
Apparent Declination
Unknown
Sunlit
N/A
Visualization observer readout
Local Sidereal Time
01:09:07
Azimuth
Unknown
Elevation
Unknown
Doppler factor
Unknown
Orbital elements
Apogee altitude
476.359 km
Perigee altitude
474.568 km
Semi-major axis
6,853.601 km
Eccentricity
0.00013
Inclination
53.1593°
RAAN
24.8599°
Arg. of periapsis
82.4433°
True anomaly
277.65686°
Mean anomaly
277.6717°
Eccentric anomaly
277.66428°
Mean motion
3.8253 °/min
Orbital period
94.11 mins
BSTAR
0.0003535
Loading maneuver chart data...
Computing Atmospheric mass density...
Loading historical data...
Loading historical data...
Loading historical data...
Loading historical data...
Loading historical data...
Loading historical data...
Loading historical data...

Documentation

Showing up to 5 results
|